Wind_Speed
58 59 60 61 62 63 64 65 65 66 67 68 69 70 71 73 75 77 79 81 83 85 87 89 91 93 94 96 97 98 100 100 100 100 99 98 97 95 92 90 87 83 80 77 74 72 69 67 66 65 63 63 62 61 60 59 58 57 56 55 54 53 52 51 50 49 49 48 47 46 45 45 44 44 43 43 42 42 42 42 42 42 41 41 40 40
59 60 61 61 62 63 64 65 65 66 67 68 70 71 73 75 76 79 81 83 85 87 89 91 93 95 96 97 99 99 100 100 99 99 98 96 94 92 89 86 82 79 76 73 70 68 66 65 63 62 61 60 59 58 57 57 55 54 53 52 51 50 49 48 47 46 45 44 43 43 42 41 41 40 39 39 38 38 38 38 37 37 37 37 36 36
59 60 61 62 62 63 64 65 66 66 67 69 70 72 74 76 78 80 83 85 87 89 91 93 94 96 98 99 99 100 99 99 98 97 95 93 91 88 85 81 78 75 72 69 66 65 63 62 61 60 59 58 57 56 55 54 53 51 50 49 48 47 46 45 44 43 42 41 40 39 39 38 37 37 36 36 35 35 34 34 34 33 33 33 33 33
59 60 61 62 62 63 63 64 65 67 68 70 71 73 76 78 80 82 85 87 89 91 93 94 96 97 98 99 100 99 99 98 96 95 93 90 87 84 80 77 73 70 67 65 63 61 60 59 58 58 57 56 55 54 52 51 50 48 47 46 45 44 43 42 41 40 39 38 38 37 36 35 35 34 34 33 33 32 32 32 31 31 31 31 31 31
59 60 61 62 62 63 64 65 66 67 69 71 73 75 77 79 82 84 86 88 90 92 94 96 97 98 99 99 99 99 97 96 94 92 90 87 84 80 76 72 69 66 63 62 60 59 58 57 57 56 55 54 52 51 50 48 47 46 45 44 43 42 41 40 39 38 37 36 36 35 34 34 33 33 33 32 32 31 31 30 30 30 29 29 29 29
60 60 61 61 62 63 64 66 67 69 70 73 74 76 78 80 83 85 87 90 92 94 95 97 98 98 99 99 98 97 96 94 92 89 86 83 79 75 71 68 65 62 60 59 58 57 56 56 55 54 53 51 50 48 47 46 45 44 43 42 41 40 39 38 37 36 36 35 35 34 34 33 33 32 32 32 31 31 31 30 30 29 29 29 28 28
60 61 61 62 63 64 65 66 68 69 71 74 76 78 80 82 84 86 88 90 92 94 96 97 98 99 98 98 97 96 94 92 89 86 82 78 74 70 66 63 61 59 58 57 56 56 55 54 53 52 50 49 48 46 45 44 43 42 41 40 39 38 37 37 36 35 35 34 34 33 33 33 33 32 32 32 32 31 31 31 30 30 29 29 29 28
60 61 62 62 63 65 66 68 69 70 72 74 77 79 81 83 85 87 89 91 93 94 96 97 99 99 98 97 95 93 91 89 86 82 78 74 69 66 63 60 59 58 57 56 55 54 53 52 51 50 48 47 46 45 44 43 41 41 40 39 38 37 36 36 35 35 34 34 34 34 34 33 33 33 33 33 33 32 32 32 32 31 31 30 30 29
60 61 62 63 64 65 67 69 71 72 74 75 78 80 82 84 87 89 91 92 94 95 96 96 97 98 98 96 93 90 87 84 81 77 73 69 65 62 60 58 57 56 55 55 54 53 52 50 49 48 46 45 44 43 42 41 40 39 38 38 37 36 36 35 35 35 34 34 34 34 34 34 34 34 34 34 34 34 34 33 33 33 32 32 32 31
61 61 62 64 65 66 67 69 72 74 75 77 79 81 83 85 87 90 92 93 95 96 96 96 96 95 95 95 92 88 84 80 77 72 68 64 61 59 58 57 56 55 54 53 52 51 50 48 47 46 45 44 43 42 41 40 39 38 37 37 36 36 35 35 35 35 35 35 35 35 35 35 35 35 35 35 34 34 34 34 33 33 33 33 32 32
61 62 63 64 66 67 69 70 72 74 77 79 81 84 85 87 88 90 92 94 95 96 97 97 96 94 92 91 89 85 80 75 72 68 65 62 59 57 56 55 54 53 53 52 51 49 48 47 46 45 44 42 41 41 40 39 38 37 37 36 36 36 35 36 36 36 36 36 36 35 35 35 34 34 34 33 33 32 32 32 32 31 31 31 31 31
61 62 63 65 66 68 70 72 74 76 78 80 83 85 87 89 90 91 93 94 95 96 96 97 96 94 90 86 83 80 76 71 67 64 61 59 57 56 55 54 53 52 51 50 49 48 47 45 44 43 42 41 40 39 39 38 37 37 36 36 36 36 36 36 36 36 35 35 34 34 33 32 32 31 30 30 29 29 29 28 28 28 28 28 28 28
61 62 64 66 67 69 71 73 75 78 80 82 84 86 88 90 92 93 94 95 95 95 95 95 94 92 89 84 79 75 71 67 63 60 58 56 55 54 53 53 52 51 50 49 48 46 45 44 43 42 41 40 39 39 38 37 37 37 37 36 36 36 36 36 35 34 33 32 31 30 29 29 28 28 27 27 26 26 26 25 25 25 25 25 24 24
62 63 65 67 69 70 72 74 77 79 81 83 85 87 89 91 92 93 94 95 96 96 94 93 91 89 85 80 74 69 66 63 60 58 56 55 53 52 51 51 50 49 48 47 46 45 44 43 42 41 40 39 39 38 38 37 37 37 37 37 36 35 34 33 32 30 29 28 27 27 26 25 25 25 25 25 24 24 24 24 24 24 24 24 23 23
62 64 66 68 70 72 73 76 78 80 83 85 87 89 91 92 94 94 95 95 95 95 93 91 89 86 81 75 68 63 61 59 57 56 54 53 52 51 50 49 49 48 47 46 45 45 43 42 41 41 40 39 39 38 38 38 38 37 37 36 34 32 31 29 27 26 25 25 24 24 24 24 24 23 23 23 23 23 24 23 24 23 23 23 23 23
63 65 67 69 71 73 75 77 79 81 84 86 88 90 91 93 94 95 95 95 94 93 91 87 84 81 78 72 66 59 56 55 54 53 52 52 51 50 49 49 48 48 47 46 45 44 43 42 41 40 40 39 39 39 38 38 37 36 34 32 30 28 26 25 24 23 23 23 23 23 23 23 23 23 22 23 23 23 23 23 23 23 23 23 23 23
64 66 68 70 72 74 76 78 80 82 85 87 89 91 92 93 94 95 95 94 93 91 88 84 78 73 70 67 63 58 54 52 52 52 51 51 50 50 49 48 48 47 47 46 45 44 43 42 41 41 40 40 39 39 38 37 35 32 30 27 25 24 23 22 22 22 22 22 22 22 22 22 22 22 22 22 22 22 22 22 22 22 22 22 22 22
65 67 69 71 73 76 78 80 82 84 86 88 90 92 93 94 94 94 94 92 90 88 85 81 75 69 63 59 57 55 52 50 50 50 50 50 50 50 50 49 48 48 47 46 45 44 43 42 42 41 40 40 39 38 36 33 30 27 25 23 22 21 21 21 21 21 21 21 21 22 22 22 22 22 23 23 23 23 23 23 23 23 22 22 21 21
66 68 70 72 75 77 79 81 83 85 87 89 91 92 93 94 94 94 92 90 87 84 79 75 70 65 59 55 53 51 49 48 49 50 50 50 51 51 51 50 49 48 47 46 45 44 43 42 42 41 40 38 37 34 31 27 24 22 21 20 20 20 20 20 21 21 21 22 22 22 23 23 24 24 24 25 25 25 25 25 25 24 24 23 22 22
68 70 72 74 76 79 81 83 85 86 88 90 91 92 93 93 93 92 90 87 84 80 75 70 65 60 56 53 50 48 48 48 49 50 51 51 51 51 51 50 49 49 47 46 45 44 43 42 41 40 38 35 32 28 25 22 20 19 19 19 19 20 20 21 21 22 22 23 23 24 24 25 25 26 26 27 27 27 27 27 27 27 26 25 24 23
69 71 73 75 77 80 82 84 86 88 89 91 92 92 93 92 92 90 87 84 80 76 71 66 61 57 53 50 48 48 48 49 50 51 52 53 53 52 51 50 49 48 47 46 44 43 42 40 39 36 33 29 25 22 20 18 18 18 18 19 20 20 21 22 22 23 24 24 25 26 26 27 27 27 28 28 28 28 28 28 28 28 27 27 26 25
70 72 75 77 79 81 83 85 87 89 90 91 91 91 91 90 89 87 84 81 76 71 66 61 57 53 50 48 47 48 49 50 51 52 53 53 53 52 52 50 49 47 46 45 43 41 39 37 34 31 27 23 20 18 17 17 17 18 19 20 20 21 22 23 24 25 25 26 27 28 28 28 28 28 28 28 28 28 28 28 28 28 28 28 27 27
71 74 76 78 81 83 84 86 88 90 91 91 91 91 90 88 85 82 79 75 71 66 62 57 54 50 48 48 49 50 51 52 53 54 54 53 53 52 51 50 48 46 44 42 40 38 35 32 28 24 21 18 17 16 16 17 18 19 19 20 21 22 23 24 25 26 27 28 28 29 29 29 29 29 29 29 29 28 28 28 28 28 28 28 28 27
73 75 77 80 82 84 86 87 89 90 91 92 91 91 89 86 83 78 74 70 65 61 57 54 51 49 49 50 51 53 54 55 55 55 54 53 52 51 50 48 46 44 42 39 36 33 29 25 22 19 17 16 16 16 17 17 18 19 19 20 21 22 24 25 26 27 28 29 30 30 30 31 30 30 30 30 29 29 28 28 28 28 28 28 28 28
74 76 78 81 83 85 87 88 89 90 91 91 90 89 87 84 80 76 71 66 62 58 54 51 50 50 51 52 53 55 56 56 56 55 54 53 52 50 48 46 43 40 37 34 31 27 23 20 17 16 15 15 16 16 17 18 18 19 19 20 21 22 24 25 26 28 29 30 31 32 32 32 32 32 31 31 30 30 29 29 28 28 28 28 28 28
75 77 79 81 84 86 87 89 90 90 90 90 88 86 83 80 77 73 68 63 58 54 51 50 50 51 52 53 55 56 57 57 56 55 53 51 50 48 46 43 39 36 33 29 25 22 19 17 15 14 14 15 16 16 17 17 18 18 19 20 21 22 23 25 27 28 30 31 32 33 33 33 34 33 33 32 32 31 30 29 28 28 28 28 28 28
76 78 80 82 84 86 88 89 90 90 89 88 86 83 80 76 73 69 63 59 54 51 48 48 49 52 54 55 56 57 57 57 56 54 52 49 47 45 42 39 35 31 28 24 21 18 16 15 14 14 14 15 15 16 16 17 17 18 19 20 20 22 23 25 27 29 31 32 33 34 34 35 35 34 34 33 33 32 31 30 29 28 28 27 27 27
77 79 81 83 85 87 88 89 89 89 88 86 84 80 76 72 67 63 59 55 52 49 47 48 50 52 55 56 57 57 56 56 54 52 50 47 44 40 37 34 31 27 23 20 18 16 15 14 14 14 14 15 15 15 16 17 17 18 19 20 21 22 24 26 28 30 31 32 33 34 35 35 36 35 35 34 33 32 31 30 29 28 28 27 27 27
78 80 82 84 86 87 88 89 89 88 86 84 81 77 73 68 62 58 54 51 49 47 48 49 51 53 55 56 57 57 55 54 52 49 47 43 40 36 33 29 26 23 21 18 16 15 14 14 14 14 15 15 15 16 17 18 18 19 20 21 22 24 26 27 29 30 32 33 34 35 36 36 36 36 36 35 34 33 32 31 30 29 28 27 27 26
79 81 83 85 86 87 88 88 87 86 84 81 78 74 70 64 59 54 50 48 47 47 48 50 52 54 56 57 57 56 54 52 49 46 43 39 35 32 29 26 23 21 19 17 15 14 14 15 15 15 16 16 17 17 18 19 20 21 22 23 24 26 28 29 30 32 33 34 35 36 37 37 37 37 37 36 35 34 33 32 31 30 29 28 27 27
79 82 84 86 87 88 88 87 86 84 82 79 75 70 66 60 55 50 47 46 46 47 49 51 53 55 55 56 55 54 52 49 46 42 39 35 31 28 26 23 20 19 18 17 16 15 15 16 16 16 17 17 18 19 20 21 22 23 24 25 26 28 29 31 32 33 34 34 35 36 37 38 38 38 38 37 36 35 34 33 32 31 30 29 28 27
80 82 84 86 87 88 87 86 85 82 79 76 72 67 62 56 51 47 45 45 46 48 50 53 55 56 55 55 53 50 48 45 42 39 35 31 28 25 23 21 19 18 18 17 17 17 17 17 17 18 18 19 19 20 21 22 23 24 25 26 28 29 31 32 33 34 34 35 36 37 38 39 39 39 39 38 37 36 35 34 33 32 30 29 29 28
81 83 85 86 87 87 87 85 83 80 77 73 68 64 59 53 48 45 44 44 46 48 51 53 55 56 56 54 51 48 44 41 38 35 31 28 25 23 21 20 19 18 17 17 17 18 18 18 18 19 19 19 20 20 21 22 23 24 25 27 29 30 31 32 33 34 35 35 36 36 37 38 39 39 39 39 38 37 36 35 34 33 32 30 29 28
81 84 85 87 87 87 85 83 80 77 74 69 65 60 55 50 46 44 44 45 47 49 52 54 55 55 54 52 49 46 41 37 34 31 28 26 23 21 20 19 18 18 18 18 18 18 19 19 19 19 20 20 20 21 22 22 23 24 26 27 29 30 32 33 34 35 35 36 36 37 37 38 39 39 39 39 38 37 37 36 35 34 33 32 30 29
83 84 86 86 86 85 84 81 78 75 71 66 61 56 51 47 44 43 44 46 48 50 53 54 54 53 51 49 46 42 38 34 31 28 26 24 22 20 19 19 18 18 18 18 19 19 19 20 20 21 21 21 22 23 23 24 25 26 27 29 30 32 33 34 35 36 36 37 37 38 38 38 38 39 39 39 39 38 38 37 36 36 35 34 32 31
83 85 86 86 85 84 82 79 76 72 68 63 58 53 48 44 43 43 44 46 49 51 53 54 54 52 49 46 42 38 34 31 28 26 24 22 21 19 18 18 18 18 18 19 19 20 20 21 21 21 22 23 24 25 26 27 28 29 30 31 32 33 34 35 36 37 38 38 39 40 40 39 39 39 39 39 40 39 39 38 37 37 36 36 34 33
84 86 86 86 84 82 80 77 73 69 65 60 55 50 46 43 42 43 44 47 50 52 54 54 53 51 47 43 39 35 31 28 26 24 22 21 20 19 18 18 18 18 19 19 20 20 21 21 22 22 23 23 25 26 27 28 30 31 32 33 34 35 35 36 37 37 38 40 41 42 42 42 41 40 40 40 40 40 40 39 38 38 37 37 36 34
85 86 86 85 83 81 78 75 71 66 62 57 52 47 44 42 42 43 45 47 50 52 53 53 52 49 45 40 36 32 29 26 24 23 21 20 19 18 18 18 18 19 19 20 20 21 21 22 23 23 24 24 25 26 27 29 30 32 33 34 35 36 36 37 37 38 39 40 41 42 43 44 43 43 42 41 40 40 40 39 38 37 37 37 36 35
85 86 85 84 82 79 76 72 68 64 59 54 49 45 42 41 41 43 45 47 50 52 52 52 49 46 42 37 33 30 27 25 23 22 21 20 19 18 18 18 18 19 19 20 21 21 22 23 23 24 25 25 26 27 28 29 30 31 33 34 35 36 37 38 38 39 40 41 42 43 44 45 45 44 44 43 42 41 40 39 38 37 36 35 35 34
85 85 84 83 80 77 73 69 66 61 57 52 47 44 41 41 41 43 45 48 50 51 51 50 47 43 39 34 31 28 25 23 22 21 20 20 19 18 18 18 19 19 20 21 21 22 23 23 24 25 25 26 27 28 29 30 31 32 33 34 36 37 38 38 39 40 41 42 43 44 45 45 46 46 45 44 43 42 41 39 38 36 35 34 33 32
85 85 84 82 79 76 72 68 64 59 54 49 45 42 41 41 42 44 46 48 50 51 51 49 46 41 36 32 28 26 24 23 22 21 20 20 19 19 19 19 19 20 21 21 22 23 23 24 25 25 26 27 28 29 30 31 32 33 34 35 36 37 38 39 41 41 42 43 43 44 45 46 46 46 46 46 45 43 42 40 38 37 35 33 31 30
85 84 83 81 78 74 70 66 62 57 53 48 44 41 40 40 42 44 46 49 51 51 50 47 43 39 34 30 27 24 23 22 22 21 21 20 20 20 20 20 20 21 21 22 23 23 24 25 25 26 27 28 28 30 31 32 33 34 36 37 37 38 39 40 41 42 43 44 44 45 45 46 46 47 47 46 45 44 43 41 39 37 35 33 30 29
85 84 82 79 76 73 69 65 60 56 51 47 43 41 40 40 42 44 46 49 50 50 49 45 41 36 31 28 25 24 23 22 22 22 21 21 21 21 21 21 21 22 22 23 24 24 25 25 26 27 28 28 29 30 32 33 34 36 37 38 39 40 41 41 42 43 44 45 45 46 46 46 46 46 46 46 46 45 43 42 40 37 35 32 30 28
85 84 81 78 75 72 68 63 58 54 49 45 42 40 39 40 42 44 46 49 50 49 47 44 39 34 29 26 24 23 22 22 22 22 22 22 22 22 22 22 22 22 23 23 24 25 26 27 28 28 29 30 31 32 33 35 36 37 38 39 41 42 43 43 44 44 45 45 46 46 46 46 45 45 45 45 45 44 43 41 40 37 34 31 29 27
84 83 80 77 74 70 65 61 57 52 48 44 41 39 39 40 41 44 46 48 49 48 45 42 37 32 28 25 23 22 22 22 22 22 22 22 22 22 22 23 23 23 24 24 25 26 27 28 29 31 31 33 34 35 36 37 38 38 40 41 42 43 44 44 45 46 46 46 46 46 46 45 45 44 44 44 44 43 42 41 39 36 33 30 27 26
84 82 79 76 72 68 64 60 55 51 46 43 40 39 39 40 41 44 46 48 48 47 44 40 35 30 27 24 23 22 22 22 22 22 22 22 22 23 23 23 24 24 25 26 26 27 28 30 31 32 33 35 36 36 37 38 39 40 41 41 42 43 44 45 46 46 47 47 46 46 45 44 43 43 42 42 43 42 42 40 38 35 31 28 26 25
83 81 78 75 71 67 63 59 54 50 45 42 40 38 38 40 41 44 46 47 47 46 43 39 34 29 25 23 22 22 22 22 22 22 23 23 23 23 23 24 24 25 26 27 28 29 30 31 32 33 34 35 36 37 37 38 39 40 41 42 43 43 44 45 46 46 47 47 47 46 45 44 42 41 41 41 41 41 40 39 36 33 30 27 25 24
82 80 77 74 70 66 62 57 53 48 44 41 39 38 38 39 41 44 46 47 47 45 42 37 32 28 24 22 21 21 21 22 22 22 23 23 23 23 24 24 25 26 26 27 28 29 31 31 32 33 33 34 35 36 37 38 39 40 41 42 43 44 44 45 45 46 46 46 46 45 44 43 42 41 40 40 40 40 39 37 34 31 28 26 24 23
82 79 76 73 69 65 61 56 52 47 43 40 39 38 38 39 41 43 45 46 46 44 40 36 31 27 24 22 21 21 21 22 22 22 23 23 24 24 25 25 26 27 28 29 30 31 32 33 33 33 34 34 35 36 37 38 39 40 42 43 43 44 44 44 44 45 45 45 44 43 42 41 41 40 40 39 39 38 37 35 33 30 27 25 23 22
81 79 75 72 68 64 60 55 50 46 42 40 38 37 38 39 41 43 45 46 45 43 39 35 30 26 23 22 21 21 21 21 22 22 23 23 24 25 25 26 27 28 30 31 32 34 35 36 37 37 36 36 37 37 38 39 40 41 42 43 43 43 44 44 44 44 44 43 43 41 40 40 39 39 39 39 39 38 36 34 31 28 25 24 22 21
81 78 75 71 67 63 58 54 49 45 42 39 38 37 38 39 41 43 45 45 45 42 39 34 30 26 23 21 21 20 21 21 22 23 23 24 25 25 26 27 28 29 30 32 33 35 37 38 40 41 41 41 40 40 41 41 41 42 42 42 43 43 43 43 43 43 43 42 41 40 38 38 38 38 39 39 38 37 35 32 29 26 24 23 21 20
Wind_Direction
319 319 320 320 320 321 321 321 321 321 320 320 320 319 319 319 319 318 318 318 318 318 319 319 319 319 318 318 318 318 317 317 316 316 315 315 315 315 315 315 315 316 316 316 316 316 316 316 315 315 314 314 313 312 312 312 312 312 312 311 311 311 310 310 309 309 308 308 307 307 306 305 305 304 303 303 302 301 301 300 300 299 299 298 297 295
319 320 320 321 321 321 321 321 321 321 321 320 320 320 319 319 319 319 319 319 319 319 319 319 319 319 319 319 318 318 317 317 317 316 316 316 316 316 316 316 316 317 317 317 317 317 317 316 316 315 314 314 314 313 313 313 313 313 313 313 313 312 312 311 311 311 310 310 309 309 309 308 308 307 307 306 305 305 304 303 303 302 301 300 299 297
320 321 321 321 322 322 321 321 321 321 321 320 320 320 320 320 319 319 320 320 320 320 320 320 320 320 319 319 319 318 318 317 317 317 317 317 317 317 317 317 317 317 317 318 317 317 317 317 316 316 315 315 315 315 315 315 315 315 315 314 314 314 313 313 313 313 312 312 312 312 312 311 311 310 310 309 309 308 307 306 306 305 304 303 301 301
321 321 321 322 322 322 321 321 321 321 321 321 320 320 320 320 320 320 320 320 321 321 321 320 320 320 320 319 319 319 318 318 318 318 318 318 318 318 318 318 318 318 318 318 318 318 317 317 317 316 316 316 317 317 317 317 316 316 316 316 315 315 315 315 315 315 315 314 314 314 314 313 313 312 312 311 311 310 309 309 308 307 306 305 304 303
321 321 322 322 321 321 321 321 321 321 321 321 321 321 321 321 321 321 321 321 321 321 321 321 320 320 320 320 319 319 319 318 318 318 318 318 318 318 319 319 319 319 319 319 319 319 318 318 317 317 318 318 318 318 318 318 317 317 317 317 317 317 317 317 317 316 316 316 316 315 315 315 314 313 313 312 312 311 310 309 309 308 307 306 306 305
321 321 321 321 321 321 321 321 321 322 322 322 321 321 321 321 321 321 321 322 322 322 321 321 321 320 320 320 320 319 319 319 319 319 319 319 319 319 319 320 320 320 320 320 319 319 319 318 318 319 319 319 319 319 318 318 318 318 318 318 318 318 318 318 318 317 317 317 317 316 316 315 315 314 313 313 312 311 311 310 309 308 307 306 305 305
321 321 321 321 321 321 322 322 322 322 322 322 322 322 322 321 322 322 322 322 322 322 322 321 321 321 321 320 320 320 320 320 320 320 320 320 320 320 320 321 321 321 320 320 320 319 319 319 319 319 320 319 319 319 319 319 319 319 319 319 319 319 319 319 318 318 318 318 317 317 316 316 315 314 314 313 312 312 311 310 309 308 307 306 305 304
321 321 322 322 322 322 322 322 323 323 322 322 322 322 322 322 322 322 322 323 322 322 322 322 322 321 321 321 321 320 320 320 320 320 320 320 321 321 321 321 321 321 321 320 320 320 320 320 320 320 320 320 320 320 320 320 320 320 320 320 320 320 319 319 319 319 318 318 318 317 317 316 315 315 314 313 312 311 310 310 309 308 307 306 305 304
322 322 322 323 323 323 323 323 323 323 323 322 322 322 322 323 323 323 323 323 323 323 322 322 322 322 322 321 321 321 321 321 320 320 321 321 321 321 322 322 321 321 321 321 320 320 321 321 321 321 321 321 321 321 321 321 320 320 320 320 320 320 320 320 320 319 319 319 318 317 317 316 315 315 314 313 312 311 310 309 308 307 306 305 304 303
322 323 323 323 323 324 324 323 323 323 323 323 323 323 323 323 324 324 324 324 324 323 323 322 322 322 322 322 322 322 321 321 321 321 321 322 322 322 322 322 322 322 321 321 321 322 322 322 322 322 322 321 321 321 321 321 321 321 321 321 321 321 320 320 320 320 319 319 318 318 317 317 316 315 314 314 313 312 311 310 309 308 307 305 304 303
323 324 324 324 324 324 323 323 323 323 323 323 323 323 324 324 324 324 324 324 324 324 323 323 323 323 323 323 322 322 322 322 322 322 322 323 323 323 323 323 323 322 322 322 322 323 323 323 323 322 322 322 322 322 322 321 321 321 321 321 321 321 321 321 320 320 320 319 319 318 318 318 317 317 317 316 316 315 314 313 312 311 309 308 306 304
324 324 324 324 324 324 324 324 324 324 324 324 324 324 324 325 325 325 325 325 324 324 324 324 323 323 323 323 323 323 322 322 322 322 323 323 324 324 324 324 324 324 324 324 324 324 324 323 323 323 323 323 322 322 322 322 322 322 322 322 322 322 321 321 321 321 321 321 321 321 321 321 322 322 322 322 322 321 321 320 319 317 316 314 311 309
324 324 324 324 324 324 324 324 324 325 325 325 325 325 325 325 326 326 325 325 325 325 324 324 324 324 324 324 324 324 323 323 323 323 323 324 324 325 325 324 324 325 325 325 325 325 324 324 324 323 323 323 322 322 322 322 322 322 322 322 322 322 322 323 323 323 324 324 325 326 327 328 329 330 330 331 331 331 331 330 329 328 326 324 321 318
325 325 324 324 324 324 325 325 325 325 326 326 326 326 326 326 326 326 326 326 325 325 325 325 325 325 325 325 325 325 324 324 323 324 324 325 326 326 326 325 325 325 326 325 325 325 325 324 324 323 323 323 322 322 322 322 322 323 323 323 324 324 325 325 327 328 329 331 333 335 336 338 339 340 341 341 341 341 341 341 340 339 337 336 333 330
325 325 325 325 325 325 325 326 326 326 326 326 326 326 326 326 327 326 326 326 326 326 326 326 326 325 325 325 325 325 325 324 324 325 325 326 326 327 327 326 326 326 326 326 325 325 324 324 323 323 322 322 322 322 322 323 323 324 325 325 326 328 329 331 333 336 338 341 343 345 346 347 348 348 349 349 349 348 348 347 346 345 344 343 342 340
325 325 325 325 325 325 326 327 327 327 327 327 327 327 327 327 327 327 327 327 327 326 326 326 326 326 326 326 326 327 327 326 325 326 326 327 327 328 328 327 326 326 326 326 325 325 324 323 322 322 322 322 322 322 323 324 325 326 328 329 331 334 337 340 343 345 348 350 351 352 353 353 353 352 352 352 351 350 349 348 347 346 345 345 344 343
326 326 326 326 326 326 327 327 328 328 328 328 328 328 328 328 327 327 327 327 327 327 327 327 327 326 327 326 326 327 327 327 327 327 327 328 328 328 328 327 326 326 326 325 324 324 323 322 322 322 322 322 322 323 325 326 328 330 332 336 339 343 347 350 352 354 355 356 356 356 355 355 354 353 352 351 350 349 348 347 346 345 344 343 343 342
326 326 326 326 327 327 328 328 328 328 328 328 328 328 328 328 328 328 328 328 328 327 327 327 327 327 327 327 327 327 328 328 328 328 328 328 328 328 328 327 326 326 325 325 324 323 322 322 321 322 322 323 324 326 327 330 333 336 340 345 349 353 356 358 359 359 359 358 358 357 356 355 353 352 351 350 349 348 347 346 345 345 344 343 342 341
326 327 327 327 328 328 328 329 329 329 329 329 329 329 329 329 329 328 328 328 328 328 328 327 327 328 328 328 328 328 329 329 329 328 328 328 328 328 327 327 326 325 325 324 323 323 322 322 322 322 324 325 327 329 332 336 341 346 351 355 359 1 2 3 2 2 0 360 358 357 355 354 353 352 351 349 349 347 346 345 345 344 343 343 342 341
327 327 328 328 329 329 329 329 330 330 330 330 330 330 330 329 329 329 329 329 328 328 328 328 328 329 329 329 329 330 330 330 330 329 329 328 328 327 327 327 326 325 325 324 323 323 323 323 323 325 326 329 332 335 340 346 351 357 1 4 5 6 6 5 4 3 1 360 358 357 356 354 353 352 351 350 348 347 346 344 343 342 342 342 341 341
328 328 329 329 330 330 330 330 330 330 331 331 330 330 330 330 330 330 329 329 329 329 329 329 329 330 330 330 331 331 331 331 330 330 329 328 328 328 327 327 326 325 325 324 324 324 324 325 326 328 331 335 339 345 352 358 3 7 8 9 9 8 8 7 5 4 2 1 359 358 356 355 354 352 351 350 348 347 345 344 342 341 340 340 340 340
329 329 330 330 330 331 331 331 331 331 331 331 331 331 331 331 330 330 330 330 329 329 329 329 330 330 331 331 331 331 332 331 331 330 329 329 328 328 328 327 327 326 325 325 326 326 327 329 331 334 339 344 351 359 5 9 11 12 12 12 11 10 9 8 7 5 3 2 0 359 358 356 354 353 351 350 348 347 345 343 341 340 339 339 339 339
330 330 331 331 331 331 331 331 332 332 332 332 332 332 332 331 331 331 330 330 330 330 330 330 330 331 332 332 333 332 332 332 332 331 330 329 329 329 328 328 327 327 327 327 328 329 331 334 338 343 350 358 5 11 14 15 15 14 14 13 12 11 10 9 7 6 5 3 1 360 358 356 355 353 352 350 349 347 345 343 341 339 338 337 337 337
331 331 332 332 332 332 332 332 332 333 333 333 333 333 332 332 332 331 331 331 331 331 331 331 332 332 333 334 334 334 333 333 333 332 331 330 330 329 330 329 329 329 330 331 333 335 338 343 349 356 4 11 16 18 18 17 16 15 14 13 12 11 10 9 7 6 4 3 1 360 358 357 355 354 352 351 349 348 346 344 342 340 338 337 336 336
332 332 332 333 333 333 333 333 334 334 334 334 334 334 333 333 332 332 332 332 332 332 332 333 333 334 334 335 334 334 334 334 333 333 332 331 331 331 331 332 332 333 334 336 339 343 348 355 3 11 17 20 20 19 18 17 15 14 13 12 11 9 8 7 5 4 3 2 0 359 357 356 355 353 352 351 350 349 347 345 343 340 338 336 335 335
332 333 333 333 333 334 334 334 335 335 335 335 335 334 334 333 333 333 332 332 333 333 334 334 335 335 335 335 335 335 334 334 334 333 333 333 333 333 333 335 336 337 340 343 347 353 0 8 15 21 24 23 21 19 17 15 14 12 11 9 7 6 4 3 2 1 1 360 359 357 356 355 354 353 352 351 350 349 348 346 344 342 339 337 335 334
333 334 334 334 334 335 335 335 336 336 336 336 335 335 334 334 334 333 333 333 334 334 335 335 336 335 335 335 335 335 335 335 334 334 334 335 335 336 337 339 341 344 347 352 358 5 12 18 21 23 24 22 19 17 15 13 11 9 7 4 2 1 360 359 358 358 358 357 356 355 354 353 352 351 351 350 349 349 348 347 345 343 341 338 336 334
334 334 335 335 335 336 336 336 337 337 337 336 336 335 335 334 334 333 333 333 334 335 336 336 336 336 336 336 335 335 335 335 336 336 336 337 338 339 341 344 347 352 357 3 9 15 19 22 22 22 21 19 16 14 12 9 7 4 2 360 358 356 356 355 355 355 355 355 354 353 352 351 351 350 350 349 349 348 347 347 345 344 342 340 338 336
335 335 336 336 337 337 337 338 338 338 337 337 336 336 335 335 334 334 334 334 335 335 336 337 337 337 337 336 336 336 336 337 337 338 339 340 342 344 347 351 355 1 7 14 19 23 23 21 20 18 17 15 12 10 8 5 2 360 358 355 354 353 353 353 353 353 353 352 352 351 351 350 350 349 349 348 348 347 347 346 345 344 343 341 339 338
336 336 337 337 338 338 339 339 339 338 338 337 337 336 336 335 335 334 334 335 335 336 337 337 338 338 338 338 337 337 338 338 339 340 342 344 346 350 353 359 4 10 14 20 23 25 23 20 17 15 13 11 9 7 4 2 359 357 355 353 353 352 352 352 352 351 351 351 350 350 350 349 349 348 348 347 347 347 346 346 345 344 343 341 340 338
337 337 338 338 339 339 340 340 339 339 338 338 337 337 336 335 335 335 335 336 336 337 338 338 338 339 339 339 339 339 339 340 341 343 346 349 352 356 1 7 12 16 20 22 22 21 20 18 15 13 11 8 6 4 1 358 356 354 353 353 352 352 352 351 351 350 350 349 349 349 349 349 348 348 347 347 347 346 346 346 345 344 343 342 340 339
337 338 339 340 340 341 341 341 340 340 339 338 338 337 336 336 336 336 336 337 337 338 339 339 339 339 340 340 340 340 341 342 344 346 350 354 358 3 8 14 19 21 23 23 21 19 17 15 13 11 9 6 3 0 358 355 354 353 352 352 352 352 351 351 350 349 349 349 348 348 348 348 347 347 346 346 346 346 346 346 345 344 343 342 340 339
338 339 340 341 341 342 342 341 341 340 339 339 338 337 337 336 336 336 337 337 338 339 340 340 340 340 341 341 342 342 344 345 348 351 355 360 5 9 14 19 22 24 23 22 21 18 16 13 11 9 6 3 360 357 355 353 353 352 353 352 352 352 351 350 349 349 348 348 348 347 347 347 347 346 346 345 345 345 345 345 345 344 343 341 340 339
340 340 341 342 342 342 342 342 341 341 340 339 338 338 337 337 337 337 338 338 339 340 341 341 341 342 342 342 343 344 346 349 352 356 0 5 10 15 19 22 23 23 22 20 18 16 14 11 9 6 3 0 358 356 355 354 353 353 353 353 352 351 351 350 349 348 348 347 347 347 347 346 346 345 345 344 344 344 344 345 345 344 342 341 339 338
341 342 342 343 343 343 343 342 342 341 340 339 339 338 338 337 338 338 339 339 340 341 342 342 343 343 343 343 344 346 348 352 356 360 5 10 14 18 21 23 23 22 20 18 16 14 12 9 7 4 1 359 357 356 356 355 354 354 354 353 352 351 350 350 349 349 348 347 347 346 346 345 345 344 344 343 343 343 343 344 344 343 342 340 338 337
342 343 344 344 344 344 344 343 342 341 341 340 339 338 338 338 339 339 340 340 341 342 343 343 343 344 344 345 346 348 351 354 359 3 8 13 17 20 22 22 21 20 18 16 14 12 10 7 5 3 0 358 357 356 356 355 354 354 353 353 352 351 350 350 349 349 348 347 346 346 345 344 344 343 343 342 342 342 342 342 343 343 342 340 338 337
344 344 345 345 345 345 344 343 343 342 341 340 339 339 339 339 339 340 341 341 342 343 344 344 344 345 345 347 348 351 354 358 2 6 10 14 17 19 20 19 19 17 15 13 11 9 7 5 3 2 0 358 357 356 355 354 354 353 352 351 350 350 349 349 349 349 348 347 346 345 344 343 342 341 341 341 340 340 340 341 342 343 343 341 339 337
345 345 346 346 346 345 345 344 343 342 341 341 340 339 339 339 340 341 341 342 343 344 344 345 345 346 347 348 350 353 357 1 4 7 11 13 15 17 16 16 15 14 12 10 8 6 4 3 1 359 358 357 356 355 354 354 353 352 350 350 349 348 348 348 348 348 348 347 346 345 344 342 341 340 339 339 339 338 339 339 341 342 343 342 339 337
346 346 347 347 346 346 345 344 343 342 342 341 340 340 340 340 340 341 342 343 344 345 345 346 346 347 348 350 352 355 359 2 5 7 9 11 12 13 12 12 11 10 9 7 5 3 2 0 359 357 356 355 354 353 353 352 352 350 349 348 348 348 348 348 348 348 347 347 346 345 343 342 340 339 338 337 337 337 337 338 340 342 343 342 340 338
347 347 347 347 347 346 345 345 344 343 342 341 340 340 340 340 341 342 343 344 345 345 346 346 347 348 349 351 354 357 360 2 4 6 7 8 8 8 8 7 6 6 5 4 2 1 359 358 357 356 355 353 352 352 351 350 350 349 348 348 347 347 347 347 347 347 347 346 345 344 343 341 340 338 337 336 335 336 336 337 340 342 343 342 340 338
348 348 348 348 347 347 346 345 344 343 342 342 341 340 341 341 341 342 343 345 346 346 347 347 348 349 351 353 356 358 0 2 3 4 4 4 4 4 4 4 3 2 2 1 360 359 357 356 355 354 353 352 351 350 349 349 348 348 348 348 348 347 347 347 347 347 346 346 345 344 342 341 339 338 336 335 334 335 336 338 340 342 344 343 341 339
349 349 349 348 348 347 346 345 344 344 343 342 341 341 341 341 342 343 344 346 347 347 348 348 349 350 352 354 356 359 1 1 2 2 2 2 2 2 2 2 1 0 360 359 358 357 356 354 353 352 351 350 349 348 348 348 347 347 347 347 347 347 347 347 347 346 345 345 344 343 342 340 339 337 335 334 334 335 336 338 341 343 344 343 341 340
349 349 349 349 348 347 346 346 345 344 343 342 342 341 341 342 343 344 345 346 347 348 349 349 350 351 352 354 357 359 0 1 0 0 360 360 360 360 0 0 0 360 359 357 356 355 354 352 351 350 349 348 348 347 347 347 347 347 347 347 347 347 347 347 346 346 345 344 343 342 341 340 338 337 335 334 333 334 336 339 342 344 345 344 342 341
350 350 350 349 349 348 347 346 345 344 343 343 342 342 342 342 343 345 346 347 348 349 349 350 350 351 353 355 357 358 359 360 359 359 359 359 359 359 359 360 359 359 358 356 354 353 352 351 349 348 348 347 347 347 347 347 347 346 346 346 346 346 346 346 346 345 344 343 342 341 340 339 338 336 334 333 333 334 336 339 342 345 346 345 343 342
351 351 350 350 349 348 347 346 345 344 343 343 342 342 342 343 344 345 347 348 349 349 350 350 351 352 353 355 356 358 358 358 358 358 358 358 358 359 359 359 358 358 357 355 353 351 350 349 348 347 347 347 347 346 346 346 346 346 346 346 346 346 346 346 345 344 343 342 341 340 339 338 337 336 334 333 333 334 337 340 343 345 346 345 344 343
351 351 351 350 349 348 347 346 345 344 344 343 342 342 342 343 344 346 347 349 350 350 350 351 351 352 353 354 356 357 357 357 357 357 358 358 358 358 358 357 357 356 355 353 352 350 349 348 347 346 346 346 345 345 345 344 344 344 345 345 345 346 345 345 344 343 341 340 340 339 339 338 337 336 334 334 334 335 338 342 345 346 347 346 345 345
352 351 351 350 349 348 347 346 346 345 344 343 343 342 343 344 345 346 348 349 350 351 351 351 352 352 353 354 355 356 356 356 356 356 357 357 357 357 357 356 355 354 353 351 350 349 348 346 346 345 344 343 343 342 342 342 343 343 344 344 345 345 345 343 342 341 340 339 339 339 339 338 337 337 336 335 335 337 340 343 346 347 347 346 345 346
352 352 351 351 350 349 348 347 346 345 344 343 343 343 343 344 346 347 349 350 351 351 352 352 352 352 352 353 354 354 355 355 355 355 355 355 355 355 355 355 354 353 351 350 348 347 346 345 344 343 342 341 340 340 341 342 342 343 344 344 344 344 344 342 341 340 340 339 339 339 339 338 338 337 337 337 338 340 342 345 347 348 347 346 346 347
352 352 352 351 350 349 348 347 346 345 344 343 343 343 344 345 346 348 349 350 351 352 352 352 352 352 352 352 352 353 353 354 354 354 354 354 353 353 353 352 351 351 350 349 347 346 345 344 343 343 342 341 341 341 342 343 343 344 344 344 344 343 343 342 341 340 340 340 340 340 340 339 339 339 339 340 341 343 345 347 349 349 347 346 346 348
353 352 352 351 350 349 348 347 346 345 344 344 343 343 344 345 347 348 350 351 352 352 352 352 352 351 351 351 351 351 352 352 352 352 352 352 352 351 351 350 349 349 348 347 347 346 345 344 344 344 344 344 343 343 344 344 345 345 344 344 343 343 342 342 342 341 341 342 342 341 341 340 340 340 341 342 344 346 348 350 351 350 348 345 346 348
353 352 352 351 350 349 348 347 346 345 344 344 344 344 344 346 347 348 350 351 352 353 353 352 352 351 350 349 349 350 350 350 350 350 350 350 350 349 349 348 348 347 346 346 345 344 344 343 342 342 343 344 344 344 344 345 345 345 344 344 343 343 343 343 343 343 343 343 343 343 343 342 342 342 343 344 346 348 350 352 353 351 348 346 346 348
Height
5662 5659 5656 5653 5649 5645 5641 5639 5636 5633 5629 5625 5621 5617 5613 5609 5605 5600 5596 5592 5588 5583 5578 5573 5568 5562 5557 5552 5547 5541 5534 5528 5522 5515 5510 5504 5498 5493 5487 5482 5477 5473 5469 5465 5461 5457 5454 5450 5447 5444 5441 5438 5435 5432 5430 5427 5424 5422 5419 5417 5415 5412 5410 5408 5405 5403 5401 5399 5397 5395 5393 5391 5389 5388 5386 5384 5383 5381 5379 5378 5376 5375 5374 5373 5372 5371
5659 5655 5652 5649 5646 5642 5638 5634 5631 5629 5625 5621 5617 5613 5609 5605 5600 5596 5591 5587 5582 5577 5573 5567 5562 5556 5550 5545 5540 5534 5527 5521 5514 5508 5503 5497 5491 5486 5481 5476 5472 5467 5463 5460 5456 5452 5449 5446 5443 5440 5436 5434 5431 5428 5425 5423 5420 5418 5415 5413 5411 5408 5406 5404 5402 5400 5397 5395 5393 5391 5390 5388 5386 5384 5383 5381 5379 5378 5376 5375 5374 5372 5371 5370 5369 5367
5656 5652 5648 5645 5642 5639 5636 5632 5628 5625 5622 5618 5614 5609 5605 5600 5596 5591 5587 5582 5577 5571 5566 5561 5555 5550 5543 5537 5532 5526 5520 5514 5507 5501 5496 5490 5485 5480 5476 5471 5467 5463 5459 5455 5452 5449 5445 5442 5439 5436 5433 5430 5427 5425 5422 5419 5417 5414 5412 5410 5407 5405 5403 5400 5398 5396 5394 5392 5390 5388 5386 5385 5383 5381 5380 5378 5376 5375 5374 5372 5371 5370 5368 5367 5366 5365
5654 5650 5646 5642 5639 5636 5633 5630 5626 5622 5618 5614 5610 5605 5601 5596 5591 5586 5581 5576 5571 5566 5560 5555 5549 5543 5537 5531 5525 5519 5513 5507 5501 5495 5490 5485 5480 5475 5471 5467 5463 5459 5455 5451 5448 5445 5441 5438 5435 5432 5429 5426 5424 5421 5419 5416 5414 5411 5409 5406 5404 5402 5400 5397 5395 5393 5391 5390 5387 5386 5384 5382 5380 5379 5377 5375 5374 5372 5371 5370 5368 5367 5365 5364 5363 5362
5650 5647 5643 5640 5636 5633 5629 5626 5623 5619 5615 5610 5606 5602 5597 5592 5587 5581 5576 5570 5565 5560 5554 5548 5543 5537 5531 5525 5519 5513 5506 5501 5495 5490 5485 5480 5475 5471 5466 5462 5459 5455 5451 5448 5445 5441 5438 5435 5432 5429 5426 5423 5421 5418 5415 5413 5410 5408 5406 5404 5401 5399 5397 5395 5393 5391 5389 5387 5385 5383 5381 5380 5378 5376 5375 5373 5371 5370 5369 5367 5366 5365 5363 5362 5360 5359
5647 5644 5641 5637 5634 5630 5627 5623 5619 5615 5611 5606 5602 5598 5594 5589 5584 5579 5573 5567 5561 5555 5549 5542 5537 5531 5526 5520 5513 5506 5500 5495 5490 5485 5480 5475 5471 5466 5462 5458 5455 5451 5448 5445 5441 5438 5435 5431 5429 5426 5423 5420 5418 5415 5413 5410 5408 5405 5403 5401 5399 5396 5395 5392 5390 5388 5386 5384 5383 5381 5379 5377 5375 5374 5372 5370 5369 5368 5366 5365 5364 5362 5361 5360 5359 5357
5643 5640 5638 5635 5631 5627 5623 5620 5616 5613 5608 5603 5598 5594 5589 5585 5580 5575 5570 5564 5558 5551 5545 5537 5530 5525 5520 5515 5508 5501 5495 5489 5484 5479 5475 5471 5466 5462 5459 5455 5451 5448 5445 5441 5438 5435 5432 5429 5426 5423 5421 5418 5415 5413 5410 5408 5405 5403 5401 5399 5396 5394 5392 5390 5388 5386 5384 5382 5380 5379 5377 5375 5374 5372 5370 5369 5367 5365 5364 5363 5361 5360 5359 5358 5357 5355
5640 5637 5633 5631 5627 5623 5619 5615 5612 5609 5605 5601 5596 5591 5586 5580 5575 5570 5565 5560 5554 5548 5541 5534 5526 5519 5513 5508 5503 5497 5491 5485 5479 5475 5471 5467 5463 5459 5455 5452 5448 5445 5442 5439 5435 5432 5429 5426 5424 5421 5418 5415 5413 5410 5408 5405 5403 5400 5398 5396 5394 5392 5390 5388 5386 5384 5382 5380 5378 5376 5375 5373 5371 5370 5368 5366 5365 5363 5362 5360 5359 5358 5357 5355 5354 5353
5638 5634 5630 5627 5624 5620 5616 5611 5607 5604 5601 5597 5593 5589 5584 5578 5571 5565 5559 5553 5548 5543 5537 5531 5524 5516 5509 5502 5496 5491 5486 5480 5475 5471 5468 5464 5460 5456 5452 5449 5445 5442 5439 5435 5432 5430 5427 5424 5421 5418 5415 5413 5410 5408 5405 5403 5400 5398 5396 5394 5392 5390 5388 5386 5384 5382 5380 5378 5376 5375 5373 5371 5369 5367 5366 5364 5362 5361 5359 5358 5356 5355 5354 5353 5351 5350
5634 5631 5627 5623 5620 5617 5614 5610 5605 5600 5596 5591 5587 5583 5579 5575 5570 5563 5555 5548 5542 5536 5530 5525 5520 5515 5508 5499 5491 5485 5480 5475 5470 5466 5463 5460 5457 5453 5449 5446 5443 5439 5436 5433 5430 5427 5424 5421 5418 5415 5413 5410 5408 5405 5403 5400 5398 5396 5394 5392 5390 5388 5386 5384 5382 5380 5378 5376 5374 5372 5370 5369 5367 5365 5363 5362 5360 5358 5357 5355 5354 5352 5351 5350 5349 5347
5630 5627 5623 5620 5616 5613 5610 5606 5602 5598 5593 5588 5582 5576 5571 5568 5564 5559 5553 5546 5539 5532 5525 5518 5512 5508 5504 5498 5490 5482 5476 5471 5466 5462 5459 5456 5453 5450 5446 5442 5440 5436 5433 5430 5427 5424 5421 5418 5415 5413 5410 5408 5405 5403 5400 5398 5396 5394 5392 5390 5388 5386 5384 5382 5380 5378 5376 5374 5372 5370 5369 5366 5365 5363 5361 5359 5358 5356 5355 5353 5351 5350 5349 5347 5346 5345
5628 5624 5620 5617 5613 5610 5606 5602 5597 5593 5589 5584 5578 5572 5565 5560 5556 5552 5547 5541 5535 5529 5522 5514 5506 5501 5497 5493 5487 5480 5473 5467 5463 5460 5456 5453 5450 5446 5443 5439 5436 5433 5430 5427 5424 5421 5418 5415 5413 5410 5408 5405 5403 5400 5398 5396 5394 5392 5390 5388 5386 5384 5382 5380 5378 5376 5374 5372 5370 5368 5366 5365 5363 5361 5359 5357 5356 5354 5352 5351 5350 5348 5346 5345 5344 5343
5625 5621 5617 5614 5610 5606 5603 5599 5594 5589 5584 5579 5574 5568 5562 5557 5552 5547 5541 5535 5529 5523 5517 5510 5502 5496 5491 5487 5482 5476 5470 5464 5460 5456 5454 5451 5448 5445 5440 5436 5433 5430 5427 5424 5421 5418 5416 5413 5410 5408 5405 5403 5400 5398 5396 5394 5392 5390 5388 5386 5384 5382 5380 5378 5376 5374 5372 5370 5368 5366 5365 5363 5361 5359 5358 5356 5354 5353 5351 5350 5348 5346 5345 5344 5342 5341
5621 5617 5614 5610 5606 5603 5599 5595 5590 5585 5580 5575 5569 5564 5558 5553 5547 5542 5537 5530 5523 5516 5510 5504 5497 5491 5486 5482 5478 5473 5467 5461 5456 5453 5450 5447 5445 5442 5439 5435 5431 5428 5425 5422 5419 5416 5414 5411 5408 5405 5403 5401 5398 5396 5394 5392 5390 5388 5386 5384 5382 5380 5378 5376 5374 5372 5370 5368 5366 5365 5363 5361 5360 5358 5356 5355 5353 5352 5350 5349 5347 5345 5344 5342 5341 5339
5618 5615 5610 5606 5602 5599 5595 5591 5586 5581 5575 5570 5564 5559 5553 5547 5541 5536 5530 5525 5518 5512 5506 5500 5492 5485 5479 5475 5473 5470 5465 5459 5454 5450 5448 5444 5442 5439 5436 5433 5429 5426 5423 5420 5417 5414 5411 5409 5406 5403 5401 5399 5396 5394 5392 5390 5388 5386 5384 5382 5380 5378 5376 5374 5372 5370 5369 5367 5365 5364 5362 5361 5359 5358 5356 5354 5353 5351 5350 5348 5346 5345 5343 5341 5340 5338
5615 5611 5607 5603 5599 5595 5591 5588 5583 5578 5572 5565 5559 5554 5549 5543 5537 5530 5525 5519 5513 5507 5501 5496 5490 5484 5476 5470 5467 5465 5462 5457 5452 5449 5446 5443 5439 5437 5434 5431 5427 5424 5421 5418 5415 5412 5409 5406 5404 5401 5399 5397 5395 5392 5390 5388 5386 5384 5382 5380 5378 5376 5375 5373 5371 5369 5368 5366 5365 5363 5362 5360 5359 5357 5356 5354 5353 5351 5349 5348 5346 5344 5343 5341 5340 5338
5612 5608 5604 5600 5596 5591 5587 5583 5578 5573 5568 5562 5555 5549 5543 5538 5532 5526 5520 5514 5508 5501 5495 5491 5487 5483 5477 5470 5464 5460 5459 5455 5451 5447 5444 5441 5437 5435 5432 5429 5425 5422 5419 5416 5413 5410 5407 5404 5402 5399 5397 5395 5393 5390 5389 5386 5385 5382 5380 5379 5377 5375 5374 5372 5370 5369 5367 5366 5365 5363 5362 5360 5359 5357 5355 5354 5352 5351 5349 5347 5346 5344 5342 5341 5339 5337
5608 5605 5601 5596 5592 5588 5584 5579 5574 5569 5563 5557 5550 5544 5537 5531 5525 5520 5514 5508 5502 5496 5491 5486 5481 5478 5475 5470 5465 5460 5456 5453 5450 5445 5442 5439 5435 5432 5429 5426 5423 5420 5417 5414 5411 5408 5405 5402 5400 5397 5395 5393 5391 5389 5387 5385 5383 5381 5379 5377 5376 5375 5373 5372 5370 5369 5367 5366 5365 5363 5362 5360 5359 5357 5355 5354 5352 5350 5349 5347 5345 5344 5342 5340 5339 5337
5605 5601 5598 5593 5588 5583 5579 5575 5570 5565 5559 5553 5546 5540 5534 5527 5520 5514 5508 5502 5497 5491 5487 5482 5478 5474 5470 5467 5463 5459 5455 5452 5448 5444 5441 5438 5434 5430 5427 5424 5420 5417 5415 5412 5409 5405 5403 5400 5398 5395 5393 5391 5389 5387 5385 5383 5381 5380 5378 5377 5375 5374 5373 5372 5370 5369 5368 5366 5365 5363 5362 5360 5359 5357 5355 5353 5351 5350 5348 5346 5345 5343 5341 5340 5338 5336
5601 5597 5594 5590 5585 5580 5574 5569 5565 5560 5555 5548 5542 5536 5530 5523 5516 5509 5503 5498 5492 5487 5482 5478 5474 5470 5467 5464 5460 5456 5453 5450 5446 5442 5439 5435 5432 5429 5425 5421 5418 5415 5412 5409 5406 5403 5400 5398 5395 5393 5391 5390 5387 5386 5384 5382 5381 5380 5378 5377 5375 5374 5373 5372 5370 5369 5368 5366 5365 5363 5361 5360 5358 5356 5355 5353 5351 5349 5347 5345 5344 5342 5340 5339 5337 5335
5598 5593 5589 5585 5581 5576 5570 5565 5560 5555 5550 5544 5537 5531 5524 5517 5510 5503 5497 5492 5487 5482 5477 5473 5470 5467 5464 5461 5458 5454 5451 5448 5445 5441 5436 5432 5429 5426 5423 5419 5415 5412 5409 5406 5404 5401 5398 5395 5393 5391 5390 5388 5386 5385 5383 5382 5381 5380 5378 5377 5376 5375 5373 5372 5370 5369 5368 5366 5365 5363 5361 5360 5358 5356 5354 5352 5350 5349 5347 5345 5343 5341 5339 5337 5336 5334
5595 5590 5585 5580 5576 5572 5567 5561 5556 5550 5545 5539 5533 5527 5520 5514 5507 5500 5494 5488 5482 5478 5474 5470 5467 5464 5462 5459 5456 5452 5449 5446 5443 5439 5435 5430 5426 5423 5420 5416 5413 5410 5407 5404 5401 5398 5396 5394 5392 5390 5388 5387 5385 5384 5383 5382 5381 5380 5378 5377 5376 5375 5374 5372 5371 5369 5368 5366 5365 5363 5361 5360 5358 5356 5354 5352 5350 5348 5346 5344 5342 5340 5338 5337 5335 5333
5591 5586 5581 5576 5571 5567 5562 5556 5551 5546 5540 5534 5528 5522 5516 5510 5504 5498 5492 5486 5480 5476 5471 5468 5464 5461 5458 5456 5453 5450 5446 5443 5440 5436 5432 5428 5424 5420 5417 5414 5410 5407 5404 5402 5399 5396 5394 5392 5390 5389 5388 5386 5385 5384 5383 5382 5381 5380 5379 5377 5376 5375 5374 5373 5371 5370 5368 5366 5365 5363 5361 5360 5358 5356 5354 5352 5350 5348 5346 5344 5342 5340 5338 5336 5334 5332
5587 5582 5577 5572 5567 5562 5557 5552 5547 5542 5535 5529 5522 5515 5510 5504 5498 5493 5488 5483 5478 5473 5469 5465 5461 5458 5455 5452 5449 5446 5443 5440 5436 5432 5428 5425 5421 5418 5415 5411 5408 5405 5402 5400 5397 5395 5393 5391 5390 5389 5387 5386 5385 5384 5383 5382 5381 5380 5379 5378 5377 5375 5374 5373 5371 5370 5368 5366 5365 5363 5361 5359 5357 5355 5354 5352 5350 5347 5345 5343 5341 5339 5337 5335 5333 5331
5583 5579 5575 5569 5564 5559 5553 5548 5543 5537 5531 5524 5517 5511 5504 5498 5492 5487 5483 5478 5474 5470 5465 5462 5459 5455 5453 5450 5447 5443 5439 5436 5433 5430 5426 5421 5417 5414 5412 5409 5406 5403 5400 5398 5395 5394 5392 5391 5390 5389 5388 5387 5386 5385 5384 5383 5382 5380 5380 5378 5377 5376 5375 5373 5372 5370 5368 5366 5365 5363 5361 5359 5357 5355 5353 5351 5349 5347 5345 5343 5340 5338 5336 5334 5332 5330
5580 5576 5571 5566 5560 5555 5549 5544 5538 5532 5526 5519 5513 5506 5500 5494 5488 5483 5478 5475 5471 5468 5464 5460 5456 5453 5450 5447 5445 5441 5437 5433 5430 5426 5423 5419 5415 5411 5409 5406 5404 5401 5399 5396 5395 5393 5392 5391 5390 5389 5388 5387 5386 5385 5384 5383 5382 5381 5380 5379 5378 5376 5375 5373 5372 5370 5368 5366 5365 5362 5360 5358 5356 5354 5352 5350 5348 5346 5344 5342 5340 5338 5335 5333 5331 5329
5576 5572 5568 5563 5557 5551 5545 5539 5533 5527 5521 5515 5508 5502 5496 5491 5485 5480 5475 5472 5469 5466 5463 5460 5455 5451 5448 5444 5441 5438 5435 5430 5427 5423 5420 5417 5413 5410 5407 5404 5402 5400 5398 5396 5395 5394 5392 5392 5390 5390 5389 5388 5387 5386 5385 5384 5383 5382 5380 5379 5378 5376 5375 5373 5371 5370 5368 5366 5364 5362 5360 5358 5355 5354 5352 5350 5348 5345 5343 5341 5339 5337 5335 5332 5330 5328
5574 5570 5565 5560 5554 5548 5541 5535 5529 5523 5517 5510 5505 5499 5493 5488 5483 5478 5473 5470 5467 5464 5461 5458 5455 5451 5447 5443 5440 5437 5433 5429 5425 5421 5417 5415 5411 5409 5406 5403 5401 5400 5398 5396 5395 5394 5393 5392 5391 5390 5389 5388 5387 5386 5385 5384 5383 5382 5381 5379 5378 5376 5375 5373 5371 5369 5367 5365 5363 5361 5359 5357 5355 5353 5350 5349 5347 5345 5343 5340 5338 5336 5334 5332 5330 5327
5571 5567 5562 5556 5551 5545 5538 5531 5525 5519 5513 5507 5501 5495 5490 5485 5481 5477 5473 5469 5466 5463 5460 5456 5454 5450 5446 5441 5437 5434 5431 5427 5423 5419 5415 5413 5410 5407 5405 5403 5401 5399 5398 5397 5396 5395 5394 5393 5392 5391 5390 5389 5388 5386 5385 5385 5383 5382 5381 5379 5378 5376 5374 5372 5370 5369 5366 5365 5362 5360 5358 5356 5354 5352 5350 5348 5345 5344 5342 5340 5337 5335 5333 5331 5329 5326
5568 5563 5557 5552 5546 5540 5534 5528 5521 5515 5509 5503 5498 5492 5487 5482 5478 5475 5471 5467 5464 5461 5458 5455 5452 5448 5444 5440 5435 5430 5427 5424 5421 5418 5415 5412 5409 5406 5404 5403 5401 5400 5399 5397 5396 5395 5395 5394 5393 5391 5390 5389 5388 5387 5386 5385 5383 5382 5380 5379 5377 5375 5374 5372 5370 5368 5366 5364 5362 5360 5357 5355 5353 5350 5349 5346 5345 5342 5340 5338 5336 5334 5332 5330 5328 5325
5565 5559 5554 5548 5542 5536 5530 5523 5517 5511 5505 5500 5494 5489 5485 5480 5476 5472 5469 5466 5463 5460 5457 5453 5450 5447 5443 5439 5435 5430 5425 5422 5419 5417 5414 5411 5409 5407 5405 5403 5401 5400 5399 5398 5397 5396 5395 5394 5393 5392 5391 5390 5389 5387 5386 5385 5384 5382 5380 5379 5377 5375 5373 5371 5369 5367 5365 5363 5361 5359 5356 5354 5352 5350 5347 5345 5343 5341 5339 5337 5335 5333 5331 5329 5327 5325
5562 5556 5550 5545 5538 5532 5526 5520 5514 5508 5502 5496 5491 5486 5482 5478 5474 5471 5468 5465 5462 5459 5455 5451 5448 5444 5441 5438 5434 5430 5426 5422 5419 5416 5413 5411 5409 5407 5405 5404 5402 5401 5400 5399 5398 5397 5396 5395 5394 5393 5391 5390 5389 5388 5387 5385 5384 5382 5380 5379 5376 5375 5373 5371 5369 5367 5365 5363 5360 5358 5356 5353 5351 5348 5346 5344 5342 5340 5338 5336 5334 5332 5330 5328 5326 5324
5559 5553 5547 5541 5535 5528 5522 5516 5510 5505 5499 5493 5489 5484 5480 5476 5472 5469 5466 5463 5460 5457 5454 5450 5446 5441 5437 5434 5431 5428 5425 5422 5419 5416 5413 5411 5409 5407 5406 5405 5403 5402 5401 5400 5399 5398 5397 5395 5394 5393 5392 5391 5390 5389 5387 5386 5384 5382 5380 5378 5376 5375 5373 5370 5368 5366 5364 5362 5360 5358 5355 5353 5350 5348 5345 5343 5340 5338 5336 5334 5332 5330 5328 5326 5325 5323
5556 5550 5544 5538 5531 5525 5519 5513 5507 5501 5496 5491 5486 5482 5478 5474 5471 5468 5465 5462 5459 5456 5453 5449 5445 5441 5436 5432 5429 5426 5423 5421 5418 5416 5414 5411 5410 5408 5407 5405 5404 5403 5402 5401 5400 5399 5397 5396 5395 5394 5393 5392 5390 5389 5387 5385 5384 5382 5380 5378 5376 5374 5372 5370 5368 5366 5363 5361 5359 5356 5354 5352 5350 5347 5344 5342 5339 5337 5335 5333 5330 5329 5326 5325 5323 5321
5552 5546 5540 5534 5527 5521 5515 5509 5503 5498 5493 5488 5484 5480 5476 5473 5470 5466 5463 5460 5457 5454 5451 5447 5444 5440 5436 5432 5428 5425 5422 5420 5418 5416 5414 5412 5410 5409 5407 5406 5405 5404 5403 5401 5400 5399 5398 5397 5395 5394 5393 5391 5390 5389 5387 5385 5383 5381 5379 5377 5375 5374 5372 5370 5367 5365 5362 5360 5357 5355 5353 5350 5348 5346 5343 5340 5338 5336 5334 5331 5329 5327 5325 5322 5321 5319
5548 5542 5536 5530 5524 5518 5511 5506 5500 5495 5490 5486 5481 5478 5474 5471 5468 5465 5462 5459 5456 5453 5449 5446 5442 5439 5435 5432 5429 5426 5423 5420 5418 5416 5414 5412 5411 5410 5408 5407 5406 5405 5403 5402 5401 5400 5398 5397 5396 5395 5393 5391 5390 5388 5386 5384 5382 5380 5378 5376 5375 5373 5371 5369 5366 5364 5361 5359 5356 5353 5351 5348 5346 5344 5342 5339 5337 5334 5332 5330 5328 5325 5323 5320 5318 5317
5545 5539 5532 5526 5520 5515 5509 5503 5498 5493 5488 5484 5480 5476 5472 5470 5466 5464 5461 5458 5455 5451 5448 5444 5440 5437 5434 5431 5428 5425 5423 5420 5418 5416 5415 5413 5411 5410 5409 5408 5406 5405 5404 5403 5401 5400 5399 5397 5396 5394 5393 5391 5390 5388 5386 5384 5382 5380 5378 5376 5374 5372 5370 5368 5365 5363 5360 5358 5355 5352 5349 5346 5344 5342 5340 5338 5335 5333 5331 5329 5326 5324 5322 5319 5317 5315
5541 5535 5529 5523 5517 5511 5505 5500 5495 5490 5486 5482 5478 5475 5471 5468 5466 5463 5460 5457 5454 5450 5447 5443 5439 5436 5433 5430 5427 5425 5423 5421 5419 5417 5415 5414 5412 5411 5410 5408 5407 5405 5404 5403 5402 5400 5399 5397 5396 5394 5393 5391 5390 5388 5386 5385 5382 5380 5378 5376 5374 5371 5369 5367 5365 5362 5360 5357 5354 5351 5348 5345 5342 5340 5337 5335 5334 5332 5330 5327 5325 5323 5321 5318 5315 5313
5537 5531 5525 5520 5514 5508 5503 5498 5493 5488 5484 5480 5476 5473 5470 5468 5465 5462 5460 5457 5454 5450 5446 5443 5439 5435 5432 5430 5427 5425 5423 5421 5419 5418 5416 5414 5413 5411 5410 5409 5407 5406 5405 5403 5402 5401 5399 5398 5396 5394 5392 5391 5389 5387 5386 5384 5383 5381 5379 5376 5374 5371 5369 5366 5364 5361 5359 5356 5353 5350 5347 5344 5341 5338 5335 5333 5331 5330 5328 5326 5324 5322 5320 5318 5315 5313
5534 5528 5522 5517 5511 5506 5500 5496 5491 5486 5482 5478 5475 5472 5469 5466 5464 5461 5459 5456 5453 5450 5446 5442 5439 5435 5433 5430 5427 5425 5423 5421 5420 5418 5416 5415 5413 5412 5410 5409 5408 5406 5405 5404 5402 5401 5400 5398 5396 5394 5393 5390 5389 5387 5385 5384 5382 5380 5379 5376 5374 5371 5368 5365 5362 5360 5357 5355 5352 5349 5346 5343 5340 5336 5334 5331 5329 5327 5325 5324 5322 5321 5319 5317 5315 5312
5532 5525 5520 5514 5508 5503 5498 5493 5489 5485 5481 5477 5474 5471 5468 5465 5462 5460 5457 5454 5451 5448 5444 5441 5438 5435 5432 5430 5427 5425 5424 5422 5420 5418 5417 5415 5414 5412 5411 5410 5408 5407 5405 5404 5402 5401 5400 5398 5396 5394 5392 5390 5389 5387 5385 5383 5381 5379 5377 5375 5373 5370 5367 5364 5361 5359 5356 5354 5351 5348 5345 5342 5339 5335 5332 5329 5327 5325 5323 5321 5320 5319 5317 5315 5313 5311
5529 5523 5517 5511 5506 5501 5496 5491 5487 5483 5479 5476 5473 5470 5467 5465 5462 5459 5456 5453 5450 5446 5443 5440 5437 5434 5431 5429 5427 5425 5424 5422 5420 5419 5417 5416 5414 5413 5411 5410 5408 5407 5405 5404 5402 5401 5399 5398 5396 5394 5392 5390 5388 5386 5384 5382 5380 5378 5376 5374 5371 5369 5367 5364 5361 5358 5355 5352 5350 5347 5345 5341 5338 5335 5331 5328 5325 5322 5320 5319 5318 5316 5315 5313 5311 5310
5526 5520 5515 5509 5504 5499 5494 5490 5485 5481 5478 5475 5471 5469 5466 5464 5461 5458 5455 5452 5449 5446 5442 5439 5436 5434 5432 5430 5428 5425 5424 5422 5421 5419 5418 5416 5415 5413 5411 5410 5409 5407 5405 5404 5403 5401 5399 5397 5396 5394 5392 5390 5388 5386 5384 5381 5380 5377 5375 5372 5370 5367 5365 5363 5360 5357 5354 5351 5349 5346 5343 5340 5337 5334 5330 5326 5323 5321 5319 5317 5316 5315 5313 5311 5310 5308
5524 5518 5512 5507 5502 5497 5492 5488 5484 5480 5477 5474 5471 5468 5465 5463 5460 5458 5455 5451 5448 5445 5442 5439 5436 5434 5432 5430 5428 5426 5424 5423 5421 5420 5418 5416 5415 5413 5412 5410 5409 5407 5405 5404 5402 5401 5399 5397 5395 5393 5391 5389 5387 5385 5383 5380 5378 5376 5374 5371 5369 5366 5363 5361 5358 5356 5353 5351 5348 5345 5342 5339 5336 5333 5329 5325 5322 5319 5317 5316 5314 5313 5311 5310 5308 5306
5522 5516 5510 5505 5500 5495 5491 5486 5483 5479 5476 5473 5470 5468 5465 5462 5460 5457 5454 5451 5448 5445 5441 5438 5436 5433 5431 5430 5428 5426 5425 5423 5421 5420 5418 5417 5415 5414 5412 5410 5409 5407 5405 5404 5402 5400 5398 5396 5395 5392 5390 5388 5386 5384 5381 5379 5377 5375 5373 5370 5368 5365 5363 5360 5357 5355 5352 5350 5347 5344 5341 5338 5335 5332 5328 5325 5321 5319 5316 5315 5313 5312 5310 5309 5307 5305
5520 5514 5508 5503 5498 5494 5489 5485 5482 5478 5475 5472 5470 5467 5464 5462 5459 5457 5454 5451 5448 5444 5441 5438 5436 5433 5431 5430 5428 5426 5425 5424 5422 5420 5419 5417 5415 5414 5412 5410 5409 5407 5405 5403 5401 5400 5398 5396 5394 5391 5389 5387 5385 5383 5380 5379 5376 5375 5372 5370 5368 5365 5362 5359 5356 5354 5351 5348 5345 5342 5340 5336 5334 5330 5327 5324 5321 5318 5315 5314 5312 5311 5309 5307 5306 5305
5517 5511 5506 5501 5496 5492 5488 5484 5480 5477 5474 5471 5469 5466 5464 5461 5458 5455 5453 5450 5447 5444 5441 5438 5435 5433 5431 5430 5428 5426 5425 5424 5422 5421 5419 5417 5415 5414 5412 5410 5409 5407 5405 5403 5401 5399 5397 5395 5393 5391 5389 5387 5385 5383 5381 5379 5376 5374 5372 5370 5367 5365 5362 5359 5356 5353 5350 5347 5344 5340 5338 5335 5332 5330 5326 5323 5320 5317 5315 5313 5311 5310 5308 5306 5305 5304
5515 5510 5504 5499 5495 5490 5486 5483 5479 5476 5473 5470 5468 5465 5463 5460 5458 5455 5452 5449 5446 5443 5440 5438 5435 5433 5431 5430 5428 5427 5425 5424 5422 5421 5419 5417 5416 5414 5412 5410 5409 5407 5405 5403 5401 5399 5397 5395 5393 5391 5390 5388 5385 5383 5381 5379 5376 5374 5371 5369 5366 5364 5361 5359 5356 5352 5349 5346 5342 5339 5336 5333 5330 5327 5325 5322 5320 5317 5315 5313 5311 5309 5307 5306 5304 5303
5513 5508 5503 5498 5493 5489 5485 5481 5478 5475 5472 5470 5467 5465 5462 5460 5457 5455 5452 5449 5445 5443 5440 5437 5435 5433 5431 5430 5428 5427 5425 5424 5422 5421 5419 5418 5416 5414 5412 5410 5408 5406 5405 5403 5400 5399 5396 5394 5392 5391 5389 5387 5385 5383 5381 5379 5376 5373 5370 5368 5365 5363 5360 5358 5355 5352 5349 5345 5342 5338 5335 5331 5329 5326 5323 5321 5319 5316 5315 5313 5310 5309 5306 5305 5304 5303
5510 5505 5501 5496 5492 5488 5484 5480 5477 5474 5472 5469 5467 5464 5461 5459 5456 5454 5451 5448 5445 5442 5440 5437 5435 5433 5431 5430 5428 5427 5425 5424 5422 5421 5419 5418 5416 5414 5412 5410 5408 5406 5404 5402 5400 5397 5395 5392 5390 5387 5386 5384 5383 5381 5379 5377 5375 5373 5370 5367 5365 5362 5360 5357 5354 5351 5347 5344 5341 5337 5334 5330 5327 5325 5322 5320 5318 5316 5314 5312 5310 5308 5306 5304 5303 5302
5509 5504 5499 5495 5491 5487 5483 5480 5476 5474 5471 5468 5466 5464 5461 5459 5456 5453 5450 5448 5445 5442 5440 5437 5435 5433 5431 5429 5428 5427 5425 5424 5422 5421 5419 5418 5416 5414 5412 5410 5408 5406 5405 5402 5400 5397 5395 5392 5389 5385 5383 5380 5379 5378 5376 5375 5373 5371 5369 5367 5364 5361 5359 5356 5353 5350 5347 5343 5340 5336 5333 5330 5327 5324 5322 5320 5317 5315 5314 5312 5310 5308 5306 5304 5303 5302